Skip navigation

Desde hoy lunes dia 14 hasta el jueves dia 17 se realizaran tandas de entrenamiento en el circuito de montmelo de cara a  la temporada y al proximo gran premio de formula uno que se disputara el proximo 27 de abril en este mismo circuito. 

Se trata de la primera serie de test de los cuatro que se realizaran de cara a esta temporada.

 

Tiempos en los test del lunes 14 de abril de 2008

 

.   2 Felipe Massa   Ferrari 00:01’18”339  
.   40 Alexander Wurz   Honda 00:01’21”059   00:00’02”720
.   43 Pedro De la Rosa     McLaren 00:01’21”566   00:00’03”227
.   3 Nick Heidfeld   BMW-Sauber   00:01’21”679     00:00’03”340
.   6 Nelson Piquet Jr   Renault 00:01’21”913   00:00’03”574
.   9 David Coulthard   Red Bull 00:01’22”193   00:00’03”854
.   8 Kazuki Nakajima   Williams 00:01’22”431   00:00’04”092
.   12 Timo Glock   Toyota 00:01’22”590   00:00’04”251
.   42 Vitantonio Liuzzi   Force India 00:01’22”846   00:00’04”507

 

 

Tiempos en los test del martes 15 de abril de 2008

 

.   17 Rubens Barrichello   Honda 00:01’18”928  
.   21 Giancarlo Fisichella     Force India     00:01’19”721     00:00’00”793
.   2 Felipe Massa   Ferrari 00:01’20”283   00:00’01”355
.   9 David Coulthard   Red Bull 00:01’20”392   00:00’01”464
.   22 Lewis Hamilton   McLaren 00:01’20”452   00:00’01”524
.   5 Fernando Alonso   Renault 00:01’20”616   00:00’01”688
.   7 Nico Rosberg   Williams 00:01’20”800   00:00’01”872
.   12 Timo Glock   Toyota 00:01’20”870   00:00’01”942
.   3 Nick Heidfeld   BMW-Sauber 00:01’20”981   00:00’02”053

 

 

Tiempos en los test del 16 de abril de 2008

 1º 5   Fernando Alonso        Renault 00:01’18”483  
. 2   Michael Schumacher  Ferrari 00:01’19”323   00:00’00”840
. 20   Adrian Sutil  Force India 00:01’19”424   00:00’00”941
. 4   Robert Kubica  BMW-Sauber     00:01’19”785     00:00’01”302
. 7   Nico Rosberg  Williams 00:01’19”841   00:00’01”358
. 17   Rubens Barrichello  Honda 00:01’19”920   00:00’01”437
. 22   Lewis Hamilton  McLaren 00:01’20”591   00:00’02”108
. 15   Sebastien Bourdais  Toro Rosso 00:01’20”715   00:00’02”232
. 10   Mark Webber  Red Bull 00:01’20”849   00:00’02”366
.10º 11   Jarno Trulli    Toyota 00:01’20”867   00:00’02”384
Anuncios

Responder

Introduce tus datos o haz clic en un icono para iniciar sesión:

Logo de WordPress.com

Estás comentando usando tu cuenta de WordPress.com. Cerrar sesión / Cambiar )

Imagen de Twitter

Estás comentando usando tu cuenta de Twitter. Cerrar sesión / Cambiar )

Foto de Facebook

Estás comentando usando tu cuenta de Facebook. Cerrar sesión / Cambiar )

Google+ photo

Estás comentando usando tu cuenta de Google+. Cerrar sesión / Cambiar )

Conectando a %s

A %d blogueros les gusta esto: